Volver al catálogo

STARLINK-6147

ActivoComunicacionesVLEO
NORAD 57120·PAYLOAD·🇺🇸 United States

Lanzado Jun 23, 2023 desde Cape Canaveral Space Force Station

Loading…

Próximos Pases (próximas 24 horas)

TLE

ActualizadoSource: CelesTrak SupGP

Época: Sep 15, 2026, 02:00 UTC

1 57120C 23090V   26258.08381944  .00017170  00000+0  62187-3 0  2589
2 57120  42.9996 291.8677 0001345 264.0464 280.7744 15.27570874    14

Sigue STARLINK-6147 en tiempo real con AllMySat

Download on the App Store